DW8122 Weather Reports


time (UTC)temp
C
wind
direction
speed
KPH
gust
KPH
rain 1hr
cm
rain 24hr
cm
rain mn
cm
humidity
%
barometer
mb
20260504081956 7 319 0.0 1.6 0.00 0.00 0.00 54 1012.3
20260504081454 7 310 1.6 3.2 0.00 0.00 0.00 53 1012.5
20260504080949 7 305 1.6 1.6 0.00 0.00 0.00 55 1012.4
20260504080446 7 309 1.6 1.6 0.00 0.00 0.00 56 1012.4
20260504050259 9 278 3.2 3.2 0.00 0.00 0.00 48 1012.5
20260504045756 9 276 3.2 4.8 0.00 0.00 0.00 48 1012.7
20260504045256 10 271 4.8 4.8 0.00 0.00 0.00 48 1012.8
20260504044754 10 281 3.2 4.8 0.00 0.00 0.00 47 1012.7
20260504044251 9 287 3.2 4.8 0.00 0.00 0.00 47 1012.7
20260504043748 9 275 4.8 4.8 0.00 0.00 0.00 49 1012.4
20260504043245 9 286 3.2 3.2 0.00 0.00 0.00 49 1012.7
20260504042743 9 282 3.2 4.8 0.00 0.00 0.00 50 1012.7
20260504042239 8 312 1.6 3.2 0.00 0.00 0.00 51 1012.3
20260504041736 9 329 1.6 1.6 0.00 0.00 0.00 55 1012.2
20260504041232 9 310 3.2 4.8 0.00 0.00 0.00 47 1012.2
20260504040728 10 323 0.0 3.2 0.00 0.00 0.00 50 1012.3
20260504040225 10 290 1.6 3.2 0.00 0.00 0.00 48 1012.3
20260504035721 10 304 3.2 3.2 0.00 0.00 0.00 46 1012.2
20260504035219 10 288 3.2 3.2 0.00 0.00 0.00 46 1012.5
20260504034716 10 305 3.2 3.2 0.00 0.00 0.00 45 1012.3
20260504034213 9 290 3.2 4.8 0.00 0.00 0.00 47 1012.2
20260504033711 10 282 3.2 3.2 0.00 0.00 0.00 49 1012.3
20260504033208 10 314 3.2 3.2 0.00 0.00 0.00 48 1012.4
20260504032705 10 281 3.2 4.8 0.00 0.00 0.00 45 1012.3
20260504032202 10 273 3.2 4.8 0.00 0.00 0.00 46 1012.1
20260504031659 10 303 3.2 4.8 0.00 0.00 0.00 47 1012.4
20260504031155 10 288 1.6 3.2 0.00 0.00 0.00 49 1011.9
20260504030652 10 300 1.6 3.2 0.00 0.00 0.00 47 1012.2
20260504030149 10 311 3.2 3.2 0.00 0.00 0.00 46 1012.0
20260504025645 10 292 3.2 3.2 0.00 0.00 0.00 45 1012.1
20260504025142 10 280 3.2 4.8 0.00 0.00 0.00 46 1012.0
20260504024640 10 292 3.2 3.2 0.00 0.00 0.00 47 1011.9
20260504024136 10 305 0.0 1.6 0.00 0.00 0.00 50 1012.0
20260504023633 10 286 3.2 3.2 0.00 0.00 0.00 45 1011.9
20260504023129 10 272 3.2 3.2 0.00 0.00 0.00 45 1012.0
20260504022625 10 276 3.2 3.2 0.00 0.00 0.00 45 1012.2
20260504022121 10 286 3.2 4.8 0.00 0.00 0.00 46 1012.1
20260504021620 10 270 3.2 4.8 0.00 0.00 0.00 47 1012.1
20260504021116 8 315 3.2 4.8 0.00 0.00 0.00 51 1012.0
20260504020613 8 333 1.6 1.6 0.00 0.00 0.00 56 1012.0
20260504020109 9 334 1.6 1.6 0.00 0.00 0.00 52 1012.0
20260504015606 9 328 1.6 3.2 0.00 0.00 0.00 53 1012.1
20260504015101 8 306 1.6 3.2 0.00 0.00 0.00 55 1012.2
20260504014558 7 301 0.0 1.6 0.00 0.00 0.00 64 1012.2
20260504014055 7 340 0.0 0.0 0.00 0.00 0.00 63 1012.1
20260504013553 7 340 0.0 0.0 0.00 0.00 0.00 63 1011.9
20260504013049 7 339 0.0 0.0 0.00 0.00 0.00 62 1011.9
20260504012547 7 339 0.0 0.0 0.00 0.00 0.00 60 1011.8
20260504012045 7 333 0.0 0.0 0.00 0.00 0.00 60 1011.8
20260504011541 8 338 0.0 0.0 0.00 0.00 0.00 59 1011.7
20260504011037 8 339 0.0 0.0 0.00 0.00 0.00 59 1011.8
20260504010533 9 330 0.0 0.0 0.00 0.00 0.00 58 1012.0
20260504010029 10 325 0.0 0.0 0.00 0.00 0.00 53 1011.7
20260504005526 10 329 0.0 0.0 0.00 0.00 0.00 52 1011.7
20260504005024 11 330 0.0 0.0 0.00 0.00 0.00 49 1011.5
20260504004521 11 330 0.0 1.6 0.00 0.00 0.00 46 1011.6
20260504004018 11 329 1.6 3.2 0.00 0.00 0.00 46 1011.6
20260504003514 11 299 1.6 3.2 0.00 0.00 0.00 42 1011.6
20260504003011 11 297 1.6 3.2 0.00 0.00 0.00 42 1011.2
20260504002508 12 308 1.6 1.6 0.00 0.00 0.00 41 1011.3
20260504002006 12 320 1.6 1.6 0.00 0.00 0.00 40 1011.3
20260504001503 12 326 0.0 1.6 0.00 0.00 0.00 39 1011.1
20260504000959 12 312 1.6 1.6 0.00 0.00 0.00 39 1011.1
20260504000457 12 306 1.6 1.6 0.00 0.00 0.00 38 1011.2
20260503235954 13 311 1.6 3.2 0.00 0.00 0.00 37 1011.2
20260503235451 13 305 1.6 1.6 0.00 0.00 0.00 36 1010.8
20260503234948 13 318 1.6 1.6 0.00 0.00 0.00 34 1011.0
20260503234446 13 295 1.6 3.2 0.00 0.00 0.00 33 1010.8
20260503233944 14 315 1.6 3.2 0.00 0.00 0.00 34 1011.0
20260503233440 14 296 3.2 4.8 0.00 0.00 0.00 32 1010.8
20260503232936 14 312 3.2 6.4 0.00 0.00 0.00 33 1010.9
20260503232433 14 303 3.2 6.4 0.00 0.00 0.00 33 1010.8
20260503231932 15 309 1.6 3.2 0.00 0.00 0.00 33 1010.8
20260503231429 15 332 3.2 3.2 0.00 0.00 0.00 32 1011.1
20260503230925 15 298 3.2 3.2 0.00 0.00 0.00 32 1010.9
20260503230421 15 292 3.2 4.8 0.00 0.00 0.00 32 1010.9
20260503225920 15 325 3.2 3.2 0.00 0.00 0.00 32 1010.8
20260503225416 15 334 3.2 4.8 0.00 0.00 0.00 33 1010.8
20260503224911 15 294 6.4 9.7 0.00 0.00 0.00 30 1010.7
20260503224409 15 323 3.2 4.8 0.00 0.00 0.00 32 1010.7
20260503223906 15 334 3.2 4.8 0.00 0.00 0.00 30 1011.0
20260503223404 15 304 3.2 6.4 0.00 0.00 0.00 30 1010.7
20260503222859 15 323 6.4 12.9 0.00 0.00 0.00 30 1010.7
20260503222358 15 285 4.8 6.4 0.00 0.00 0.00 31 1010.7
20260503221856 15 322 1.6 6.4 0.00 0.00 0.00 30 1010.8
20260503221354 15 342 6.4 6.4 0.00 0.00 0.00 31 1010.7
20260503220850 15 321 3.2 3.2 0.00 0.00 0.00 32 1010.8
20260503220347 15 338 3.2 6.4 0.00 0.00 0.00 31 1010.7
20260503215844 15 293 4.8 6.4 0.00 0.00 0.00 32 1010.9
20260503215341 15 302 4.8 11.3 0.00 0.00 0.00 29 1010.8
20260503214838 15 319 4.8 6.4 0.00 0.00 0.00 31 1010.7
20260503214336 15 292 3.2 4.8 0.00 0.00 0.00 31 1010.8
20260503213833 15 318 4.8 6.4 0.00 0.00 0.00 30 1010.7
20260503213331 15 279 6.4 12.9 0.00 0.00 0.00 29 1010.8
20260503212827 15 358 4.8 9.7 0.00 0.00 0.00 32 1011.0
20260503212325 15 336 3.2 9.7 0.00 0.00 0.00 31 1010.8
20260503211822 15 299 4.8 6.4 0.00 0.00 0.00 30 1010.9
20260503211319 15 316 4.8 4.8 0.00 0.00 0.00 30 1010.9
20260503210819 15 282 6.4 11.3 0.00 0.00 0.00 31 1010.6
20260503210317 15 329 4.8 9.7 0.00 0.00 0.00 31 1010.9
20260503205811 14 355 4.8 11.3 0.00 0.00 0.00 30 1010.6
20260503205308 14 334 1.6 4.8 0.00 0.00 0.00 31 1010.7
20260503204805 15 334 3.2 6.4 0.00 0.00 0.00 31 1010.9
20260503204303 15 337 1.6 12.9 0.00 0.00 0.00 31 1010.8
20260503203800 15 17 8.0 11.3 0.00 0.00 0.00 28 1010.9
20260503203257 15 351 4.8 14.5 0.00 0.00 0.00 30 1010.7
20260503202754 15 335 3.2 4.8 0.00 0.00 0.00 29 1010.9
20260503202252 14 306 3.2 6.4 0.00 0.00 0.00 31 1010.8
20260503201749 14 313 4.8 9.7 0.00 0.00 0.00 30 1010.9
20260503201247 15 285 4.8 9.7 0.00 0.00 0.00 30 1011.1
20260503200743 15 291 6.4 9.7 0.00 0.00 0.00 28 1011.1
20260503200239 15 298 4.8 11.3 0.00 0.00 0.00 34 1011.0
20260503195736 15 290 4.8 12.9 0.00 0.00 0.00 29 1011.2
20260503195233 15 283 4.8 9.7 0.00 0.00 0.00 30 1011.2
20260503194731 15 346 6.4 14.5 0.00 0.00 0.00 30 1011.1
20260503194226 15 334 6.4 6.4 0.00 0.00 0.00 32 1011.3
20260503193723 15 314 4.8 6.4 0.00 0.00 0.00 31 1011.5
20260503193219 15 350 3.2 6.4 0.00 0.00 0.00 30 1011.5
20260503192715 15 325 6.4 12.9 0.00 0.00 0.00 30 1011.7
20260503192210 15 325 6.4 9.7 0.00 0.00 0.00 32 1011.4
20260503191707 15 305 4.8 6.4 0.00 0.00 0.00 31 1011.6
20260503191204 14 335 4.8 11.3 0.00 0.00 0.00 30 1011.7
20260503190701 14 331 6.4 14.5 0.00 0.00 0.00 32 1011.8
20260503190158 14 319 9.7 12.9 0.00 0.00 0.00 31 1011.6
20260503185655 13 313 3.2 6.4 0.00 0.00 0.00 34 1011.8
20260503185150 12 322 4.8 6.4 0.00 0.00 0.00 34 1011.9
20260503184645 13 312 8.0 11.3 0.00 0.00 0.00 32 1012.1
20260503184142 13 322 6.4 12.9 0.00 0.00 0.00 34 1012.2
20260503183638 13 307 4.8 9.7 0.00 0.00 0.00 33 1012.1
20260503183136 13 332 4.8 11.3 0.00 0.00 0.00 36 1012.2
20260503182634 13 293 9.7 12.9 0.00 0.00 0.00 34 1011.9
20260503182132 13 311 1.6 3.2 0.00 0.00 0.00 33 1012.1
20260503181628 13 292 3.2 9.7 0.00 0.00 0.00 38 1012.3
20260503181125 13 276 6.4 9.7 0.00 0.00 0.00 33 1012.2
20260503180622 12 264 6.4 11.3 0.00 0.00 0.00 32 1012.2
20260503180120 12 283 6.4 20.9 0.00 0.00 0.00 34 1012.2
20260503175617 13 326 6.4 9.7 0.00 0.00 0.00 32 1012.3
20260503175114 12 352 4.8 11.3 0.00 0.00 0.00 33 1012.2
20260503174611 12 312 3.2 6.4 0.00 0.00 0.00 33 1012.5
20260503174108 13 336 6.4 16.1 0.00 0.00 0.00 34 1012.3
20260503173602 13 320 4.8 11.3 0.00 0.00 0.00 36 1012.2
20260503173059 13 325 3.2 9.7 0.00 0.00 0.00 32 1012.4
20260503172556 13 3 6.4 11.3 0.00 0.00 0.00 37 1012.5
20260503172054 12 272 6.4 11.3 0.00 0.00 0.00 33 1012.4
20260503171550 13 330 8.0 11.3 0.00 0.00 0.00 33 1012.8
20260503171047 12 340 1.6 4.8 0.00 0.00 0.00 36 1012.4
20260503170543 13 329 6.4 9.7 0.00 0.00 0.00 33 1012.7
20260503150936 10 334 6.4 11.3 0.00 0.00 0.00 39 1013.1
20260503150433 10 299 4.8 11.3 0.00 0.00 0.00 39 1013.1
20260503131326 8 329 1.6 6.4 0.00 0.00 0.00 52 1013.2
20260503130823 8 322 3.2 12.9 0.00 0.00 0.00 51 1013.4
20260503130321 8 19 6.4 11.3 0.00 0.00 0.00 51 1013.3
20260503110714 6 334 0.0 1.6 0.00 0.00 0.00 62 1012.3
20260503110211 6 343 1.6 1.6 0.00 0.00 0.00 62 1012.3
20260503100138 6 331 1.6 3.2 0.00 0.00 0.00 66 1011.3